Showing default

JILIN-01 KUANFU 02A, 57696

Orbit data source: Space-Track

JILIN-01 KUANFU 02A, 57696 is a payload satellite owned by Changguang WJ (CN) in SSO that was launched on Fri, 25 Aug 2023 UTC via a GUSHENXING 1 launch vehicle from the Jiuquan Satellite Launch Center, China (JSC). Payload-class satellites include a variety of spacecraft equipped with specific instruments for various scientific and technological missions. These include communications satellites like Starlink; space stations such as the ISS; scientific satellites like the Hubble; Earth observation satellites from companies like Planet Labs, Umbra, and HawkEye 360; GPS; miniature CubeSats for education and research; and military/defense satellites.

Loading next visibility...
Identifier
57696, 2023-127A
Orbit
SSO
Country
Flag of CNCN / PRC
Related business
Manufacturer
HARB/CGSTL
Mission
Operational Commercial Imaging
Bus & Motor
JL-1, Unknown motor
Mass
230 kg wet, ~200 kg dry
Launch date (UTC)
2023-08-25 (3 years ago)
Launch vehicle
GUSHENXING 1
Launch site
Jiuquan Satellite Launch Center, China (JSC)
Object type
Payload
Rocket body
Debris
Shape & HBR
Box + 2 Pan, 0.8 m
Radar Cross Section
2.000 m², Large (>1 m²)

Expand to show TLE details & history
Last TLE update: 2 days ago

TLE from 2 days ago
0 JILIN-01 KUANFU 02A
1 57696U 23127A   26171.44718219  .00002930  00000-0  18096-3 0  9992
2 57696  97.5565 265.2245 0010489 333.7496  26.3200 15.10628067156129
Epoch: 2026-06-20T10:43Z
TLE epoch observation values (Epoch: 2026-06-20T10:43:56.541Z)
Latitude
-0.00008°
Longitude
-164.42275°
Altitude
530.858 km
Speed
7.601 km/s
True Right ascension
17h 40m 53s
True Declination
0° 00' 00"
Sunlit
Object was in full shadow at epoch
Visualization orbit readout
Latitude
Unknown
Longitude
Unknown
Altitude
Unknown
Speed
Unknown
Apparent Right ascension
Unknown
Apparent Declination
Unknown
Sunlit
N/A
Visualization observer readout
Local Sidereal Time
21:28:23
Azimuth
Unknown
Elevation
Unknown
Doppler factor
Unknown
Orbital elements
Apogee altitude
538.515 km
Perigee altitude
524.021 km
Semi-major axis
6,909.405 km
Eccentricity
0.00105
Inclination
97.5565°
RAAN
265.2245°
Arg. of periapsis
333.7496°
True anomaly
26.37336°
Mean anomaly
26.32°
Eccentric anomaly
26.34667°
Mean motion
3.77905 °/min
Orbital period
95.26 mins
BSTAR
0.00018096
Loading maneuver chart data...
Computing Atmospheric mass density...
Loading historical data...
Loading historical data...
Loading historical data...
Loading historical data...
Loading historical data...
Loading historical data...
Loading historical data...
Other satellites on launch #127 in the year 2023 (2023-08-25 UTC)

Documentation

Showing up to 5 results
|